Change the Weather History Date:

Saturday, October 29, 2011

  Actual Average Record
Temperature  
Mean Temperature 42 °F -  
Max Temperature 51 °F 57 °F 73 °F (1989)
Min Temperature 33 °F 38 °F 26 °F (1980)
Degree Days  
Heating Degree Days 24    
Moisture  
Dew Point 34 °F    
Average Humidity 79    
Maximum Humidity 89    
Minimum Humidity 57    
Precipitation  
Precipitation 0.10 in - - ()
Sea Level Pressure  
Sea Level Pressure 30.08 in    
Wind  
Wind Speed 4 mph (SSW)    
Max Wind Speed 13 mph    
Max Gust Speed 28 mph    
Visibility 7 miles    
Events Rain    
Averages and records for this station are not official NWS values.
T = Trace of Precipitation, MM = Missing Value Source: NWS Daily Summary

Daily Weather History Graph

Daily Weather History Graph

Search for Another Location

Airport or City:

Trip Planner

Search our weather history database for the weather conditions in past years. The results will help you decide how hot, cold, wet, or windy it might be!

Date:

Astronomy

Oct. 29, 2011 Rise Set
Actual Time 8:03 AM EDT 6:31 PM EDT
Civil Twilight 7:34 AM EDT 7:00 PM EDT
Nautical Twilight 7:01 AM EDT 7:33 PM EDT
Astronomical Twilight 6:28 AM EDT 8:06 PM EDT
Moon 11:27 AM EDT (10/29) 8:50 PM EDT (10/29)
Length of Visible Light 11h 26m
Length of Day
10h 28m
Waxing Crescent, 11% of the Moon is Illuminated
Oct 29
Waxing Crescent
Nov 2
First Quarter
Nov 10
Full
Nov 18
Last Quarter
Nov 25
New

Hourly Weather History & Observations

Time (EDT) Temp. Windchill Dew Point Humidity Pressure Visibility Wind Dir Wind Speed Gust Speed Precip Events Conditions
12:53 AM 36.0 °F 30.3 °F 32.0 °F 86% 30.11 in 10.0 mi SW 6.9 mph - N/A   Overcast
1:53 AM 39.0 °F 34.8 °F 33.1 °F 79% 30.10 in 10.0 mi South 5.8 mph - N/A   Overcast
2:53 AM 41.0 °F 36.4 °F 35.1 °F 79% 30.08 in 10.0 mi South 6.9 mph - N/A   Overcast
3:53 AM 39.0 °F 35.7 °F 33.1 °F 79% 30.07 in 10.0 mi SW 4.6 mph - N/A   Overcast
4:53 AM 37.0 °F - 32.0 °F 82% 30.06 in 10.0 mi Calm Calm - N/A   Clear
5:53 AM 35.6 °F 32.8 °F 30.2 °F 81% 30.06 in 9.0 mi South 3.5 mph - N/A   Clear
6:53 AM 33.8 °F - 28.4 °F 81% 30.05 in 7.0 mi Calm Calm - N/A   Clear
7:53 AM 33.1 °F 30.0 °F 28.0 °F 82% 30.06 in 5.0 mi SSW 3.5 mph - N/A   Haze
8:53 AM 35.1 °F - 30.9 °F 85% 30.06 in 4.0 mi Calm Calm - N/A   Partly Cloudy
9:53 AM 42.1 °F 39.2 °F 35.1 °F 76% 30.06 in 9.0 mi South 4.6 mph - N/A   Overcast
10:53 AM 43.0 °F 39.5 °F 35.1 °F 74% 30.07 in 10.0 mi South 5.8 mph - N/A   Overcast
11:53 AM 46.0 °F 44.8 °F 36.0 °F 68% 30.06 in 10.0 mi South 3.5 mph - N/A   Overcast
12:53 PM 48.9 °F - 37.9 °F 66% 30.06 in 10.0 mi SW 5.8 mph - N/A   Overcast
1:53 PM 50.0 °F - 36.0 °F 59% 30.04 in 10.0 mi Calm Calm - N/A   Overcast
2:53 PM 50.0 °F - 35.1 °F 57% 30.03 in 10.0 mi Calm Calm - N/A   Overcast
3:53 PM 43.0 °F 36.8 °F 36.0 °F 76% 30.05 in 1.5 mi WSW 11.5 mph 27.6 mph 0.05 in Rain Heavy Rain
4:00 PM 44.6 °F 38.4 °F 35.6 °F 71% 30.03 in 1.5 mi SSE 12.7 mph - 0.03 in Rain Heavy Rain
4:11 PM 46.4 °F 44.3 °F 35.6 °F 66% 30.02 in 3.0 mi SSE 4.6 mph - N/A Rain Light Rain
4:24 PM 46.4 °F 42.9 °F 37.4 °F 71% 30.04 in 10.0 mi WSW 6.9 mph - 0.05 in   Mostly Cloudy
4:53 PM 46.0 °F 44.8 °F 39.0 °F 76% 30.05 in 10.0 mi WSW 3.5 mph - 0.05 in   Overcast
5:53 PM 45.0 °F 40.6 °F 37.9 °F 76% 30.06 in 10.0 mi SW 8.1 mph - 0.00 in   Overcast
6:53 PM 42.1 °F - 36.0 °F 79% 30.08 in 10.0 mi Calm Calm - 0.00 in   Clear
7:53 PM 39.2 °F - 35.6 °F 87% 30.09 in 10.0 mi Calm Calm - N/A   Mostly Cloudy
8:53 PM 39.0 °F - 36.0 °F 89% 30.12 in 10.0 mi Calm Calm - N/A   Partly Cloudy
9:14 PM 35.6 °F - 32.0 °F 87% 30.12 in 1.8 mi Calm Calm - N/A   Clear
9:23 PM 39.2 °F - 35.6 °F 87% 30.11 in 4.0 mi Calm Calm - N/A   Clear
9:53 PM 35.1 °F 32.2 °F 32.0 °F 89% 30.13 in 6.0 mi West 3.5 mph - N/A   Clear
10:33 PM 33.8 °F - 30.2 °F 87% 30.12 in 1.8 mi Calm Calm - N/A   Clear
10:43 PM 35.6 °F - 32.0 °F 87% 30.12 in 3.0 mi Calm Calm - N/A   Clear
10:53 PM 34.0 °F 31.0 °F 30.0 °F 85% 30.13 in 4.0 mi NE 3.5 mph - N/A   Clear
10:56 PM 33.8 °F 29.6 °F 30.2 °F 87% 30.12 in 1.8 mi NE 4.6 mph - N/A   Clear
11:06 PM 33.8 °F 30.8 °F 30.2 °F 87% 30.12 in 10.0 mi NE 3.5 mph - N/A   Clear
11:40 PM 33.8 °F - 30.2 °F 87% 30.13 in 10.0 mi Calm Calm - N/A   Partly Cloudy
11:53 PM 34.0 °F - 30.9 °F 89% 30.14 in 10.0 mi Calm Calm - N/A   Clear